Content
SEND FEEDBACK

Daily
Averages
Monthly
Summary
United States of America

ASHEVILLE, NORTH CAROLINA


Home > North America > United States > North Carolina
Elevation: 2240 feet     Latitude: 35 36N     Longitude: 082 32W

WEATHER
 
SELECT A DAY
Number of Records: 229,536;   Date Range: 1/1/95 - 10/23/14
 
SHARE

PRINT THIS DATA

[ ← Previous Day ]
WEATHER ALMANAC - MAY 7, 2013
[ Next Day → ]
[ °C ]   °F
Weather ElementAverageHighLow
Temperature49.3 °F64.9 °F (12:54 pm)41 °F (4:51 am)
Dewpoint44.4 °F52 °F (6:54 pm)36 °F (1:54 pm)
Humidity86.3 %100 % (4:59 am)35 % (1:54 pm)
Barometer29.91 in29.97 in (10:03 pm)29.86 in (2:54 pm)
Wind Speed2 mph10.4 mph (9:54 am)
Weather ElementAverage
Visibility6.7 mi
Wind DirectionENE (66.4 °)

Weather ElementTotal
Precipitation0.06 in
Heating Degree Days12.1 (Base 65)
Growing Degree Days3 (Base 50)
Averaged from 36 records on May 7, 2013
WEATHER CONDITIONS BREAKOUT
WIND DIRECTION BREAKOUT
WEATHER BY HOUR - MAY 7, 2013
[ °C ]   °F
Local TimeTemperatureDewpointHumidityBarometerVisibilityWind DirectionWind SpeedGust SpeedPrecipitationEventsConditions
1:54 AM44.1 °F42.1 °F93 %29.88 in10.0 miCalmClear
2:54 AM43.0 °F41.0 °F93 %29.88 in10.0 miCalmClear
3:20 AM42.8 °F41.0 °F93 %29.90 in8.0 miCalmPartly Cloudy
3:54 AM42.1 °F41.0 °F96 %29.87 in9.0 miCalmPartly Cloudy
4:51 AM41.0 °F39.2 °F93 %29.90 in6.0 miCalmMostly Cloudy
4:54 AM41.0 °F39.9 °F96 %29.87 in4.0 miCalmMostly Cloudy
4:59 AM41.0 °F41.0 °F100 %29.90 in1.8 miCalmOvercast
5:09 AM42.8 °F41.0 °F93 %29.90 in1.0 miCalmMist
5:18 AM42.8 °F42.8 °F100 %29.90 in0.8 miCalmMist
5:54 AM42.1 °F42.1 °F100 %29.87 in0.5 miCalmFogFog
6:06 AM42.8 °F42.8 °F100 %29.90 in0.2 miCalmFogFog
6:14 AM42.8 °F42.8 °F100 %29.90 in0.5 miCalmFogFog
6:22 AM42.8 °F42.8 °F100 %29.91 in0.5 miCalmFogFog
6:41 AM42.8 °F42.8 °F100 %29.91 in0.2 miCalmFogFog
6:54 AM43.0 °F42.1 °F97 %29.90 in0.2 miCalmFogFog
7:09 AM42.8 °F42.8 °F100 %29.92 in1.0 miCalmMist
7:12 AM42.8 °F42.8 °F100 %29.93 in3.0 miCalmOvercast
7:40 AM42.8 °F42.8 °F100 %29.93 in9.0 miCalmScattered Clouds
7:54 AM44.1 °F43.0 °F96 %29.91 in5.0 miCalmClear
8:54 AM50.0 °F46.0 °F86 %29.92 in10.0 miNNW (340°)6.9 mphClear
9:54 AM55.0 °F45.0 °F69 %29.92 in10.0 miNNW (340°)10.4 mphClear
10:54 AM60.1 °F45.0 °F57 %29.91 in10.0 miNNW (330°)6.9 mphClear
11:54 AM62.1 °F41.0 °F46 %29.90 in10.0 miNNW (330°)8.1 mphClear
12:54 PM64.9 °F39.9 °F40 %29.88 in10.0 miVariable4.6 mphClear
1:54 PM64.0 °F36.0 °F35 %29.88 in10.0 miNorth (350°)5.8 mphOvercast
2:54 PM64.9 °F43.0 °F45 %29.86 in10.0 miVariable4.6 mphPartly Cloudy
3:54 PM59.0 °F46.0 °F62 %29.88 in10.0 miNE (50°)9.2 mph0.00 inRainLight Rain
4:54 PM54.0 °F51.1 °F90 %29.90 in10.0 miEast (90°)5.8 mph0.06 inRainLight Rain
5:54 PM55.0 °F51.1 °F86 %29.92 in10.0 miNW (310°)4.6 mph0.00 inRainLight Rain
6:54 PM55.9 °F52.0 °F87 %29.92 in10.0 miCalm0.00 inMostly Cloudy
7:54 PM55.0 °F52.0 °F89 %29.94 in10.0 miWSW (250°)3.5 mphMostly Cloudy
8:54 PM54.0 °F52.0 °F93 %29.95 in10.0 miCalmMostly Cloudy
9:54 PM54.0 °F52.0 °F93 %29.94 in10.0 miCalm0.00 inOvercast
10:03 PM53.6 °F51.8 °F94 %29.97 in10.0 miCalmOvercast
10:54 PM52.0 °F50.0 °F93 %29.95 in10.0 miCalmMostly Cloudy
11:54 PM52.0 °F50.0 °F93 %29.94 in10.0 miCalmOvercast
Hourly data recorded from KAVL, located miles away from Asheville, North Carolina







STORIES FROM OUR PARTNERS